THORAD AGENA D DEB, 4988

Orbit data source: Space-Track

THORAD AGENA D DEB, 4988 is space debris in SSO originally from a launch on Wed, 08 Apr 1970 UTC launched from the Air Force Western Test Range (AFWTR). Debris objects in space refer to the collection of defunct objects orbiting the Earth. Examples of debris include non-operational satellites, rocket bodies, and fragments generated from explosions, collisions, or faulty payload assembly.

Loading next visibility...
Identifier
4988, 1970-025HJ
Orbit
SSO
Country
Flag of USUS
Related business
Manufacturer
Unknown
Mission
Spacecraft
Bus & Motor
Unknown
Mass
Unknown
Launch date (UTC)
1970-04-08 (56 years ago)
Launch vehicle
Unknown
Launch site
Air Force Western Test Range (AFWTR)
Object type
Payload
Rocket body
Debris
Shape & HBR
Unknown shape, 0.1 m
Radar Cross Section
Small (<0.1 m²)

Expand to show TLE details & history
Last TLE update: 16 hours ago

TLE from 16 hours ago
0 THORAD AGENA D DEB
1 04988U 70025HJ  26072.46898928  .00000548  00000-0  71213-3 0  9998
2 04988 100.0233  63.4871 0015668 162.5029 349.1439 13.67045920770745
Epoch: 2026-03-13T11:15Z
TLE epoch observation values (Epoch: 2026-03-13T11:15:20.673Z)
Latitude
27.95836°
Longitude
-91.0981°
Altitude
1,002.156 km
Speed
7.359 km/s
True Right ascension
16h 35m 22s
True Declination
27° 49' 15"
Sunlit
Object was in daylight at epoch
Visualization orbit readout
Latitude
Unknown
Longitude
Unknown
Altitude
Unknown
Speed
Unknown
Apparent Right ascension
Unknown
Apparent Declination
Unknown
Sunlit
N/A
Visualization observer readout
Local Sidereal Time
07:28:10
Azimuth
Unknown
Elevation
Unknown
Doppler factor
Unknown
Orbital elements
Apogee altitude
1,019.063 km
Perigee altitude
995.919 km
Semi-major axis
7,385.628 km
Eccentricity
0.00157
Inclination
100.0233°
RAAN
63.4871°
Arg. of periapsis
162.5029°
True anomaly
349.11002°
Mean anomaly
349.1439°
Eccentric anomaly
349.12697°
Mean motion
3.4195 °/min
Orbital period
105.28 mins
BSTAR
0.00071213
Loading maneuver chart data...
Computing Atmospheric mass density...
Loading historical data...
Loading historical data...
Loading historical data...
Loading historical data...
Loading historical data...
Loading historical data...
Loading historical data...

Documentation

Showing up to 5 results
|